This demonstration page uses our WeatherBlox Daily Observations layout. Learn more.

Left ArrowRight Arrow

Hourly Observations for November 24, 2020

Temp ( °F °C ) Dew Point ( °F °C ) Humidity (%) Winds ( mph kmh ) Pressure ( in mb ) Visibility ( mi km ) Precip ( " mm )
12:54 am 00:54 Cloudy with Mist and Fog 39 3.9 36 2.2 89 89 SE 12 19 29.93 1013 6 9.65604 0 0
1:54 am 01:54 Cloudy with Mist and Fog 39 3.9 36 2.2 89 89 SE 9 15 29.89 1012 4 6.43736 0 0
2:54 am 02:54 Cloudy with Mist and Fog 40 4.4 37 2.8 89 89 SE 8 13 29.88 1012 4 6.43736 0 0
3:15 am 03:15 Cloudy with Light Rain 40 4.4 38 3.3 93 93 SE 7 11 29.9 1012 2.5 4.02335 0.001 0.001
3:54 am 03:54 Cloudy with Mist and Fog 41 5 38 3.3 89 89 SE 7 11 29.86 1011 3 4.82802 0.01 0.254
4:14 am 04:14 Cloudy with Mist and Fog 41 5 39 3.9 93 93 ESE 6 9 29.86 1011 2.5 4.02335 0.01 0.254
4:54 am 04:54 Cloudy with Light Rain 42 5.6 40 4.4 92 92 E 6 9 29.84 1011 2 3.21868 0.02 0.508
5:18 am 05:18 Cloudy with Light Rain 42 5.6 40 4.4 92 92 E 7 11 29.85 1011 3 4.82802 0.02 0.508
5:49 am 05:49 Cloudy with Light Rain 43 6 41 5 93 93 ESE 6 9 29.85 1011 4 6.43736 0.03 0.762
5:54 am 05:54 Cloudy with Light Rain 43 6.1 41 5 93 93 ESE 6 9 29.83 1010 3 4.82802 0.03 0.762
6:19 am 06:19 Cloudy with Light Rain 43 6.1 41 5 93 93 E 5 7 29.84 1010 2.5 4.02335 0.01 0.254
6:26 am 06:26 Cloudy with Light Rain 43 6.1 41 5 93 93 E 5 7 29.84 1010 3 4.82802 0.01 0.254
6:35 am 06:35 Cloudy with Light Rain 43 6.1 41 5 93 93 E 6 9 29.83 1010 2.5 4.02335 0.02 0.508
6:43 am 06:43 Cloudy with Light Rain 43 6.1 41 5 93 93 E 5 7 29.84 1010 3 4.82802 0.02 0.508
6:50 am 06:50 Cloudy with Light Rain 43 6 41 5 93 93 E 5 7 29.83 1010 2.5 4.02335 0.03 0.762
6:54 am 06:54 Cloudy with Light Rain 43 6.1 41 5 93 93 E 6 9 29.82 1010 2.5 4.02335 0.03 0.762
7:54 am 07:54 Cloudy with Light Rain 44 6.7 42 5.6 93 93 E 5 7 29.81 1009 2 3.21868 0.02 0.508
8:20 am 08:20 Cloudy with Light Rain 43 6.1 41 5 93 93 ENE 5 7 29.83 1010 2.5 4.02335 0.01 0.254
8:33 am 08:33 Cloudy with Light Rain 44 6.7 42 5.6 93 93 ENE 5 7 29.83 1010 1.25 2.011675 0.02 0.508
8:54 am 08:54 Cloudy with Light Rain 44 6.7 42 5.6 93 93 E 7 11 29.81 1010 1.75 2.816345 0.04 1.016
9:32 am 09:32 Cloudy with Light Rain 44 6.7 42 5.6 93 93 ENE 7 11 29.82 1010 2 3.21868 0.02 0.508
9:51 am 09:51 Cloudy with Light Rain 45 7 43 6 93 93 NE 6 9 29.82 1010 3 4.82802 0.04 1.016
9:54 am 09:54 Cloudy with Light Rain 45 7.2 42 5.6 90 90 NE 6 9 29.8 1009 2 3.21868 0.04 1.016
10:52 am 10:52 Cloudy with Light Rain 45 7 43 6 93 93 NNE 7 11 29.82 1010 2 3.21868 0.03 0.762
10:54 am 10:54 Cloudy with Light Rain 44 6.7 42 5.6 93 93 NNE 7 11 29.8 1009 2 3.21868 0.03 0.762
11:05 am 11:05 Cloudy with Light Rain 44 6.7 42 5.6 93 93 NNE 7 11 29.82 1010 3 4.82802 0.001 0.001
11:13 am 11:13 Cloudy with Light Rain 45 7.2 42 5.6 90 90 NNE 9 15 29.81 1010 2 3.21868 0.01 0.254
11:25 am 11:25 Cloudy with Light Rain 45 7.2 42 5.6 90 90 NNE 9 15 29.8 1009 2 3.21868 0.01 0.254
11:54 am 11:54 Cloudy with Light Rain 45 7.2 43 6.1 93 93 N 9 15 29.79 1009 2 3.21868 0.03 0.762
12:54 pm 12:54 Cloudy with Light Rain 45 7.2 42 5.6 90 90 N 12 19 29.79 1009 2 3.21868 0.02 0.508
1:32 pm 13:32 Cloudy with Light Rain 45 7.2 42 5.6 90 90 N 13 20 29.8 1009 2 3.21868 0.02 0.508
1:45 pm 13:45 Cloudy with Mist and Fog 44 6.7 42 5.6 93 93 N 13 20 29.81 1009 6 9.65604 0.02 0.508
1:54 pm 13:54 Cloudy 44 6.7 41 5 89 89 N 13 20 29.79 1009 10 16.0934 0.02 0.508
2:54 pm 14:54 Cloudy with Light Rain 43 6.1 40 4.4 89 89 N 16 26 29.8 1009 3 4.82802 0.001 0.001
3:54 pm 15:54 Cloudy 42 5.6 38 3.3 85 85 N 18 30 29.81 1009 10 16.0934 0.04 1.016
4:54 pm 16:54 Cloudy 41 5 37 2.8 86 86 N 15 24 29.83 1010 10 16.0934 0 0
5:54 pm 17:54 Cloudy 41 5 37 2.8 86 86 NNE 12 19 29.87 1011 9 14.48406 0.001 0.001
6:12 pm 18:12 Cloudy 41 5 38 3.3 89 89 N 13 20 29.89 1012 9 14.48406 0 0
6:33 pm 18:33 Cloudy 41 5 37 2.8 86 86 N 15 24 29.89 1012 10 16.0934 0 0
6:54 pm 18:54 Cloudy 40 4.4 35 1.7 83 83 N 16 26 29.88 1012 10 16.0934 0 0
7:54 pm 19:54 Cloudy 37 2.8 32 0 82 82 N 21 33 29.88 1012 10 16.0934 0 0
8:04 pm 20:04 Cloudy 37 2.8 32 0 82 82 N 20 31 29.91 1013 10 16.0934 0 0
8:54 pm 20:54 Cloudy 36 2.2 30 -1.1 79 79 N 21 33 29.87 1011 10 16.0934 0 0
9:54 pm 21:54 Cloudy 36 2.2 29 -1.7 76 76 N 20 31 29.87 1012 10 16.0934 0 0
10:54 pm 22:54 Cloudy 36 2.2 28 -2.2 73 73 N 20 31 29.86 1011 10 16.0934 0 0
11:19 pm 23:19 Cloudy 35 1.7 29 -1.7 78 78 NNE 15 24 29.9 1013 10 16.0934 0 0
11:54 pm 23:54 Cloudy 36 2.2 30 -1.1 79 79 N 12 19 29.87 1012 10 16.0934 0 0

Powered by AerisWeather